Location: Columbus
(29.5618°N, 96.6770°W)
Time: 11:45:35
(UTC-05:00)

Iridium 59 - Visible Passes

Search period start: 21 July 2017 00:00
Search period end: 31 July 2017 00:00
Orbit: 776 x 779 km, 86.4° (Epoch: 21 July)

Date Brightness Start Highest point End Pass type
(mag) Time Alt. Az. Time Alt. Az. Time Alt. Az.
21 Jul 7.1 00:32:02 23° NW 00:32:02 23° NW 00:34:25 10° NNW visible
21 Jul 6.5 23:58:28 33° NNW 23:58:28 33° NNW 00:01:20 10° N visible
22 Jul 6.3 23:24:53 32° NNE 23:24:53 32° NNE 23:27:46 10° N visible
23 Jul 6.6 22:51:17 22° NE 22:51:17 22° NE 22:53:43 10° NNE visible
24 Jul 7.3 00:31:45 19° NW 00:31:45 19° NW 00:33:56 10° NNW visible
24 Jul 7.1 22:17:41 13° ENE 22:17:41 13° ENE 22:18:48 10° NE visible
24 Jul 6.6 23:58:09 31° NW 23:58:09 31° NW 00:01:13 10° NNW visible
25 Jul 6.0 23:24:31 42° N 23:24:31 42° N 23:27:56 10° N visible
26 Jul 6.1 22:50:53 34° NE 22:50:53 34° NE 22:54:12 10° NNE visible
27 Jul 7.6 00:31:21 14° WNW 00:31:21 14° WNW 00:33:00 10° NW visible
27 Jul 6.6 22:17:15 20° ENE 22:17:15 20° ENE 22:19:54 10° NE visible
27 Jul 6.9 23:57:42 26° WNW 23:57:42 26° WNW 00:00:55 10° NNW visible
28 Jul 7.1 21:43:35 10° ENE 21:43:35 10° ENE 21:43:52 10° ENE visible
28 Jul 5.9 23:24:03 46° NW 23:24:03 46° NW 23:27:56 10° N visible
29 Jul 5.4 22:50:22 53° NNE 22:50:22 53° NNE 22:54:28 10° N visible
30 Jul 5.9 22:16:41 32° ENE 22:16:41 32° ENE 22:20:32 10° NNE visible
